This demonstration page uses our WeatherBlox Daily Observations layout. Learn more.

39.92423, -83.80882

Hourly Observations for June 24, 2016

Temp ( °F °C ) Dew Point ( °F °C ) Humidity (%) Winds ( mph kmh ) Pressure ( in mb ) Visibility ( mi km ) Precip ( " mm )
12:56 am 00:56 Clear 67 19.4 67 19.4 100 100 NE 6 9 29.93 1014 10 16.0934 0 0
1:56 am 01:56 Clear 66 18.8 66 18.8 100 100 E 3 6 29.96 1014 8 12.87472 0 0
2:56 am 02:56 Mostly Clear 66 18.8 66 18.8 100 100 NNE 5 7 29.96 1015 8 12.87472 0 0
3:56 am 03:56 Partly Cloudy 66 18.8 66 18.8 100 100 NE 7 11 29.93 1014 7 11.26538 0 0
4:56 am 04:56 Clear with Mist and Fog 65 18.3 65 18.3 100 100 NE 6 9 29.93 1014 4 6.43736 0 0
5:56 am 05:56 Clear with Mist and Fog 64 17.7 64 17.7 100 100 NE 7 11 29.96 1015 4 6.43736 0 0
6:23 am 06:23 Sunny with Mist and Fog 64 18 64 18 100 100 ENE 6 9 29.97 1015 2.5 4.02335 0 0
6:56 am 06:56 Sunny with Mist and Fog 64 17.7 64 17.7 100 100 NE 6 9 29.98 1015 2.5 4.02335 0 0
7:12 am 07:12 Sunny with Mist and Fog 64 18 64 18 100 100 ENE 5 7 29.97 1015 3 4.82802 0 0
7:56 am 07:56 Sunny 66 18.8 66 18.8 100 100 NE 9 15 29.99 1016 10 16.0934 0 0
8:56 am 08:56 Sunny 71 21.6 66 18.8 84 84 E 7 11 30.01 1016 10 16.0934 0 0
9:56 am 09:56 Sunny 75 23.8 66 18.8 74 74 NNE 7 11 30.03 1017 10 16.0934 0 0
10:56 am 10:56 Mostly Sunny 78 25.5 66 18.8 67 67 NE 6 9 30.04 1017 10 16.0934 0 0
11:56 am 11:56 Sunny 81 27.2 66 18.8 60 60 NNE 8 13 30.04 1017 10 16.0934 0 0
12:56 pm 12:56 Sunny 82 27.7 67 19.4 61 61 NE 7 11 30.04 1017 10 16.0934 0 0
1:56 pm 13:56 Partly Cloudy 83 28.3 66 18.8 56 56 VRB 7 11 30.04 1017 10 16.0934 0 0
2:56 pm 14:56 Mostly Sunny 84 28.8 64 17.7 51 51 NE 12 19 30.05 1018 10 16.0934 0 0
3:56 pm 15:56 Sunny 85 29.4 62 16.6 46 46 VRB 7 11 30.06 1018 10 16.0934 0 0
4:56 pm 16:56 Sunny 85 29.4 60 15.5 43 43 ENE 8 13 30.06 1018 10 16.0934 0 0
5:56 pm 17:56 Sunny 85 29.4 60 15.5 43 43 NE 9 15 30.05 1018 10 16.0934 0 0
6:56 pm 18:56 Sunny 84 28.8 59 15 43 43 NE 7 11 30.06 1018 10 16.0934 0 0
7:56 pm 19:56 Sunny 81 27.2 58 14.4 45 45 NE 9 15 30.06 1018 10 16.0934 0 0
8:56 pm 20:56 Sunny 76 24.4 58 14.4 54 54 NE 6 9 30.06 1018 10 16.0934 0 0
9:56 pm 21:56 Clear 69 20.5 59 15 71 71 NE 7 11 30.07 1018 10 16.0934 0 0
10:56 pm 22:56 Clear 68 20 57 13.8 68 68 NE 9 15 30.09 1019 10 16.0934 0 0
11:56 pm 23:56 Clear 65 18.3 56 13.3 73 73 NE 6 9 30.1 1019 10 16.0934 0 0

Powered by AerisWeather